| time (UTC) | temp F | wind direction | speed MPH | gust MPH | rain 1hr in | rain 24hr in | rain mn in | humidity % | barometer mb |
| 20260903082456 | 82 | 162 | 0.0 | 0.0 | 0.00 | 0.16 | 0.00 | 88 | 1012.7 |
| 20260903081955 | 82 | 162 | 0.0 | 0.0 | 0.00 | 0.16 | 0.00 | 89 | 1012.7 |
| 20260903081455 | 82 | 162 | 0.0 | 0.0 | 0.00 | 0.16 | 0.00 | 89 | 1012.5 |
| 20260903080958 | 82 | 162 | 0.0 | 0.0 | 0.00 | 0.16 | 0.00 | 89 | 1012.6 |
| 20260903080455 | 82 | 162 | 0.0 | 0.0 | 0.00 | 0.16 | 0.00 | 89 | 1012.6 |
| 20260903075955 | 82 | 162 | 0.0 | 0.0 | 0.00 | 0.16 | 0.00 | 89 | 1012.6 |
| 20260903075456 | 82 | 162 | 0.0 | 0.0 | 0.00 | 0.16 | 0.00 | 89 | 1012.5 |
| 20260903074955 | 82 | 162 | 0.0 | 0.0 | 0.00 | 0.16 | 0.00 | 89 | 1012.5 |
| 20260903074455 | 82 | 162 | 0.0 | 0.0 | 0.00 | 0.16 | 0.00 | 89 | 1012.5 |
| 20260903073958 | 82 | 162 | 0.0 | 0.0 | 0.00 | 0.16 | 0.00 | 89 | 1012.6 |
| 20260903073455 | 82 | 162 | 0.0 | 0.0 | 0.00 | 0.16 | 0.00 | 89 | 1012.6 |
| 20260903072956 | 82 | 162 | 0.0 | 0.0 | 0.00 | 0.16 | 0.00 | 90 | 1012.7 |
| 20260903072455 | 82 | 162 | 0.0 | 0.0 | 0.00 | 0.16 | 0.00 | 90 | 1012.8 |
| 20260903071955 | 82 | 162 | 0.0 | 0.0 | 0.00 | 0.16 | 0.00 | 90 | 1012.8 |
| 20260903071455 | 82 | 162 | 0.0 | 0.0 | 0.00 | 0.16 | 0.00 | 90 | 1012.8 |
| 20260903070958 | 82 | 162 | 0.0 | 0.0 | 0.00 | 0.16 | 0.00 | 90 | 1012.8 |
| 20260903070455 | 82 | 162 | 0.0 | 0.0 | 0.00 | 0.16 | 0.00 | 90 | 1012.8 |
| 20260903065955 | 82 | 162 | 0.0 | 0.0 | 0.00 | 0.16 | 0.00 | 90 | 1012.9 |
| 20260903065455 | 82 | 162 | 0.0 | 0.0 | 0.00 | 0.16 | 0.00 | 90 | 1013.0 |
| 20260903064955 | 82 | 162 | 0.0 | 0.0 | 0.00 | 0.16 | 0.00 | 90 | 1012.8 |
| 20260903064459 | 82 | 162 | 0.0 | 0.0 | 0.00 | 0.16 | 0.00 | 90 | 1012.8 |
| 20260903063955 | 82 | 162 | 0.0 | 0.0 | 0.00 | 0.16 | 0.00 | 90 | 1012.7 |
| 20260903063455 | 82 | 162 | 0.0 | 0.0 | 0.00 | 0.16 | 0.00 | 91 | 1012.8 |
| 20260903062955 | 82 | 163 | 0.0 | 0.0 | 0.00 | 0.16 | 0.00 | 91 | 1012.9 |
| 20260903062456 | 82 | 163 | 0.0 | 0.0 | 0.00 | 0.16 | 0.00 | 90 | 1013.1 |
| 20260903061955 | 82 | 163 | 0.0 | 0.0 | 0.00 | 0.16 | 0.00 | 90 | 1013.2 |
| 20260903061455 | 82 | 163 | 0.0 | 0.0 | 0.00 | 0.16 | 0.00 | 91 | 1013.2 |
| 20260903060956 | 82 | 163 | 0.0 | 0.0 | 0.00 | 0.16 | 0.00 | 90 | 1013.2 |
| 20260903060455 | 82 | 163 | 0.0 | 0.0 | 0.00 | 0.16 | 0.00 | 90 | 1013.4 |
| 20260903055955 | 82 | 163 | 0.0 | 0.0 | 0.00 | 0.16 | 0.00 | 90 | 1013.5 |
| 20260903055455 | 82 | 163 | 0.0 | 0.0 | 0.00 | 0.16 | 0.00 | 90 | 1013.6 |
| 20260903054956 | 82 | 163 | 0.0 | 0.0 | 0.00 | 0.16 | 0.00 | 90 | 1013.7 |
| 20260903054458 | 82 | 163 | 0.0 | 0.0 | 0.00 | 0.16 | 0.00 | 91 | 1013.9 |
| 20260903053955 | 82 | 163 | 0.0 | 0.0 | 0.00 | 0.16 | 0.00 | 90 | 1013.9 |
| 20260903053455 | 82 | 163 | 0.0 | 0.0 | 0.00 | 0.16 | 0.00 | 91 | 1013.9 |
| 20260903052955 | 82 | 163 | 0.0 | 0.0 | 0.00 | 0.16 | 0.00 | 91 | 1013.9 |
| 20260903052455 | 82 | 163 | 0.0 | 0.0 | 0.00 | 0.16 | 0.00 | 91 | 1014.0 |
| 20260903051955 | 82 | 163 | 0.0 | 0.0 | 0.00 | 0.16 | 0.00 | 92 | 1014.1 |
| 20260903051456 | 82 | 163 | 0.0 | 0.0 | 0.00 | 0.16 | 0.00 | 91 | 1014.2 |
| 20260903050958 | 82 | 163 | 0.0 | 0.0 | 0.00 | 0.16 | 0.00 | 92 | 1014.2 |
| 20260903050458 | 82 | 163 | 0.0 | 0.0 | 0.00 | 0.16 | 0.00 | 92 | 1014.1 |
| 20260903045955 | 82 | 163 | 0.0 | 0.0 | 0.00 | 0.16 | 0.00 | 92 | 1014.0 |
| 20260903045455 | 82 | 163 | 0.0 | 0.0 | 0.00 | 0.16 | 0.00 | 92 | 1014.0 |
| 20260903044955 | 81 | 163 | 0.0 | 0.0 | 0.00 | 0.16 | 0.00 | 92 | 1014.2 |
| 20260903044455 | 81 | 163 | 0.0 | 0.0 | 0.00 | 0.16 | 0.00 | 92 | 1014.3 |
| 20260903043955 | 81 | 163 | 0.0 | 0.0 | 0.00 | 0.16 | 0.00 | 93 | 1014.4 |
| 20260903043456 | 81 | 163 | 0.0 | 0.0 | 0.00 | 0.16 | 0.00 | 93 | 1014.4 |
| 20260903042955 | 81 | 163 | 0.0 | 1.0 | 0.00 | 0.16 | 0.00 | 93 | 1014.4 |
| 20260903042455 | 81 | 140 | 0.0 | 0.0 | 0.00 | 0.16 | 0.00 | 93 | 1014.4 |
| 20260903041955 | 81 | 140 | 0.0 | 0.0 | 0.00 | 0.16 | 0.00 | 94 | 1014.3 |
| 20260903041455 | 81 | 140 | 0.0 | 0.0 | 0.00 | 0.16 | 0.00 | 94 | 1014.2 |
| 20260903040956 | 81 | 140 | 0.0 | 0.0 | 0.00 | 0.16 | 0.00 | 94 | 1014.0 |
| 20260903040455 | 81 | 140 | 0.0 | 0.0 | 0.00 | 0.16 | 0.00 | 94 | 1013.9 |
| 20260903035955 | 81 | 140 | 0.0 | 0.0 | 0.00 | 0.16 | 0.00 | 94 | 1013.8 |
| 20260903035455 | 80 | 140 | 0.0 | 0.0 | 0.00 | 0.16 | 0.00 | 94 | 1013.8 |
| 20260903034955 | 80 | 140 | 0.0 | 0.0 | 0.00 | 0.16 | 0.00 | 94 | 1013.8 |
| 20260903034455 | 80 | 140 | 0.0 | 0.0 | 0.00 | 0.16 | 0.00 | 94 | 1013.8 |
| 20260903033955 | 80 | 140 | 0.0 | 1.0 | 0.00 | 0.16 | 0.00 | 94 | 1013.9 |
| 20260903033455 | 79 | 140 | 0.0 | 0.0 | 0.00 | 0.16 | 0.00 | 94 | 1013.7 |
| 20260903032956 | 79 | 140 | 0.0 | 0.0 | 0.00 | 0.16 | 0.00 | 93 | 1013.8 |
| 20260903032455 | 79 | 140 | 0.0 | 1.0 | 0.00 | 0.16 | 0.00 | 93 | 1013.8 |
| 20260903031955 | 79 | 140 | 0.0 | 0.0 | 0.00 | 0.16 | 0.00 | 93 | 1013.6 |
| 20260903031455 | 79 | 140 | 0.0 | 0.0 | 0.00 | 0.16 | 0.00 | 92 | 1013.6 |
| 20260903030955 | 79 | 140 | 0.0 | 0.0 | 0.00 | 0.16 | 0.00 | 92 | 1013.3 |
| 20260903030456 | 79 | 140 | 0.0 | 0.0 | 0.00 | 0.16 | 0.00 | 92 | 1013.4 |
| 20260903025955 | 79 | 140 | 0.0 | 0.0 | 0.01 | 0.16 | 0.00 | 92 | 1013.3 |
| 20260903025458 | 79 | 140 | 0.0 | 0.0 | 0.02 | 0.16 | 0.00 | 92 | 1013.1 |
| 20260903024956 | 79 | 140 | 0.0 | 0.0 | 0.05 | 0.16 | 0.00 | 91 | 1013.0 |
| 20260903024455 | 79 | 140 | 0.0 | 0.0 | 0.08 | 0.16 | 0.00 | 91 | 1013.1 |
| 20260903023955 | 79 | 140 | 0.0 | 0.0 | 0.10 | 0.16 | 0.00 | 91 | 1013.1 |
| 20260903023456 | 79 | 140 | 0.0 | 0.0 | 0.16 | 0.16 | 0.00 | 91 | 1013.0 |
| 20260903022955 | 80 | 140 | 0.0 | 0.0 | 0.16 | 0.16 | 0.00 | 91 | 1012.9 |
| 20260903022455 | 80 | 140 | 0.0 | 0.0 | 0.16 | 0.16 | 0.00 | 90 | 1012.7 |
| 20260903021955 | 80 | 140 | 0.0 | 0.0 | 0.16 | 0.16 | 0.00 | 90 | 1012.6 |
| 20260903021455 | 80 | 140 | 0.0 | 0.0 | 0.16 | 0.16 | 0.00 | 89 | 1012.5 |
| 20260903020955 | 80 | 140 | 0.0 | 0.0 | 0.16 | 0.16 | 0.00 | 89 | 1012.3 |
| 20260903020458 | 81 | 140 | 0.0 | 0.0 | 0.16 | 0.16 | 0.00 | 88 | 1012.4 |
| 20260903015955 | 81 | 140 | 0.0 | 1.0 | 0.14 | 0.14 | 0.00 | 87 | 1012.4 |
| 20260903015459 | 82 | 140 | 0.0 | 2.0 | 0.13 | 0.13 | 0.00 | 86 | 1012.2 |
| 20260903014955 | 83 | 140 | 0.0 | 0.0 | 0.09 | 0.09 | 0.00 | 85 | 1012.6 |
| 20260903014455 | 83 | 140 | 0.0 | 1.0 | 0.08 | 0.08 | 0.00 | 83 | 1012.8 |
| 20260903013955 | 84 | 140 | 0.0 | 1.0 | 0.05 | 0.05 | 0.00 | 82 | 1013.0 |
| 20260903013456 | 84 | 142 | 1.0 | 2.0 | 0.00 | 0.00 | 0.00 | 79 | 1013.1 |
| 20260903012955 | 84 | 209 | 0.0 | 4.0 | 0.00 | 0.00 | 0.00 | 78 | 1013.1 |
| 20260903012455 | 85 | 209 | 4.0 | 4.0 | 0.00 | 0.00 | 0.00 | 77 | 1013.1 |
| 20260903011955 | 85 | 309 | 1.0 | 8.0 | 0.00 | 0.00 | 0.00 | 75 | 1012.9 |
| 20260903011455 | 87 | 350 | 5.0 | 5.0 | 0.00 | 0.00 | 0.00 | 72 | 1012.9 |
| 20260903010955 | 88 | 338 | 3.0 | 4.0 | 0.00 | 0.00 | 0.00 | 70 | 1012.8 |
| 20260903010455 | 89 | 304 | 1.0 | 4.0 | 0.00 | 0.00 | 0.00 | 67 | 1012.6 |
| 20260903005955 | 90 | 327 | 1.0 | 2.0 | 0.00 | 0.00 | 0.00 | 60 | 1012.5 |
| 20260903005455 | 90 | 225 | 2.0 | 2.0 | 0.00 | 0.00 | 0.00 | 59 | 1012.1 |
| 20260903004956 | 90 | 180 | 0.0 | 2.0 | 0.00 | 0.00 | 0.00 | 59 | 1011.7 |
| 20260903004455 | 91 | 0 | 0.0 | 2.0 | 0.00 | 0.00 | 0.00 | 58 | 1011.3 |
| 20260903003958 | 91 | 205 | 1.0 | 3.0 | 0.00 | 0.00 | 0.00 | 59 | 1011.3 |
| 20260903003456 | 91 | 162 | 0.0 | 4.0 | 0.00 | 0.00 | 0.00 | 60 | 1011.3 |
| 20260903002959 | 91 | 168 | 1.0 | 4.0 | 0.00 | 0.00 | 0.00 | 60 | 1011.2 |
| 20260903002455 | 91 | 142 | 1.0 | 2.0 | 0.00 | 0.00 | 0.00 | 60 | 1011.2 |
| 20260903001955 | 92 | 156 | 2.0 | 3.0 | 0.00 | 0.00 | 0.00 | 60 | 1011.0 |
| 20260903001455 | 92 | 172 | 0.0 | 2.0 | 0.00 | 0.00 | 0.00 | 60 | 1010.8 |
| 20260903000955 | 92 | 153 | 1.0 | 2.0 | 0.00 | 0.00 | 0.00 | 60 | 1010.7 |
| 20260903000456 | 92 | 45 | 2.0 | 2.0 | 0.00 | 0.00 | 0.00 | 61 | 1010.7 |
| 20260902235956 | 92 | 224 | 1.0 | 2.0 | 0.00 | 0.00 | 0.00 | 60 | 1010.6 |
| 20260902235455 | 92 | 225 | 0.0 | 1.0 | 0.00 | 0.00 | 0.00 | 61 | 1010.7 |
| 20260902234955 | 93 | 224 | 0.0 | 1.0 | 0.00 | 0.00 | 0.00 | 60 | 1010.6 |
| 20260902234455 | 93 | 224 | 1.0 | 2.0 | 0.00 | 0.00 | 0.00 | 60 | 1010.6 |
| 20260902233955 | 93 | 236 | 0.0 | 2.0 | 0.00 | 0.00 | 0.00 | 59 | 1010.5 |
| 20260902233455 | 93 | 236 | 0.0 | 2.0 | 0.00 | 0.00 | 0.00 | 58 | 1010.5 |
| 20260902232955 | 93 | 236 | 0.0 | 2.0 | 0.00 | 0.00 | 0.00 | 58 | 1010.6 |
| 20260902232456 | 93 | 269 | 0.0 | 1.0 | 0.00 | 0.01 | 0.00 | 58 | 1010.6 |
| 20260902231955 | 93 | 269 | 1.0 | 1.0 | 0.00 | 0.01 | 0.00 | 58 | 1010.7 |
| 20260902231458 | 93 | 269 | 1.0 | 1.0 | 0.00 | 0.01 | 0.00 | 58 | 1010.6 |
| 20260902230955 | 94 | 269 | 0.0 | 2.0 | 0.00 | 0.01 | 0.00 | 58 | 1010.6 |
| 20260902230455 | 94 | 182 | 0.0 | 2.0 | 0.00 | 0.01 | 0.00 | 57 | 1010.5 |
| 20260902225955 | 94 | 182 | 1.0 | 2.0 | 0.00 | 0.01 | 0.00 | 57 | 1010.4 |
| 20260902225456 | 94 | 342 | 1.0 | 1.0 | 0.00 | 0.01 | 0.00 | 57 | 1010.5 |
| 20260902224955 | 94 | 342 | 0.0 | 1.0 | 0.00 | 0.01 | 0.00 | 58 | 1010.5 |
| 20260902224455 | 94 | 342 | 0.0 | 2.0 | 0.00 | 0.03 | 0.00 | 57 | 1010.7 |
| 20260902223955 | 95 | 346 | 1.0 | 2.0 | 0.00 | 0.03 | 0.00 | 57 | 1010.7 |
| 20260902223455 | 95 | 199 | 1.0 | 2.0 | 0.00 | 0.03 | 0.00 | 55 | 1010.8 |
| 20260902222955 | 95 | 199 | 0.0 | 1.0 | 0.00 | 0.03 | 0.00 | 57 | 1010.6 |
| 20260902222455 | 95 | 200 | 0.0 | 1.0 | 0.00 | 0.03 | 0.00 | 56 | 1010.6 |
| 20260902221956 | 95 | 200 | 0.0 | 2.0 | 0.00 | 0.03 | 0.00 | 56 | 1010.7 |
| 20260902221459 | 94 | 202 | 0.0 | 2.0 | 0.00 | 0.03 | 0.00 | 55 | 1010.8 |
| 20260902220955 | 94 | 197 | 1.0 | 2.0 | 0.00 | 0.03 | 0.00 | 55 | 1010.7 |
| 20260902220455 | 94 | 197 | 0.0 | 2.0 | 0.00 | 0.03 | 0.00 | 56 | 1010.7 |
| 20260902215956 | 95 | 197 | 0.0 | 1.0 | 0.00 | 0.03 | 0.00 | 56 | 1010.7 |
| 20260902215455 | 95 | 197 | 0.0 | 1.0 | 0.00 | 0.03 | 0.00 | 57 | 1010.8 |
| 20260902214956 | 95 | 197 | 0.0 | 1.0 | 0.00 | 0.03 | 0.00 | 55 | 1010.7 |
| 20260902214455 | 95 | 197 | 0.0 | 2.0 | 0.00 | 0.03 | 0.00 | 55 | 1010.8 |
| 20260902213958 | 95 | 202 | 0.0 | 2.0 | 0.00 | 0.03 | 0.00 | 54 | 1010.8 |
| 20260902213455 | 95 | 198 | 1.0 | 2.0 | 0.00 | 0.03 | 0.00 | 54 | 1010.8 |
| 20260902212955 | 95 | 198 | 0.0 | 2.0 | 0.00 | 0.03 | 0.00 | 53 | 1010.9 |
| 20260902212458 | 95 | 198 | 0.0 | 2.0 | 0.00 | 0.03 | 0.00 | 55 | 1010.9 |
| 20260902211955 | 95 | 303 | 0.0 | 2.0 | 0.00 | 0.03 | 0.00 | 55 | 1011.0 |
| 20260902211458 | 95 | 304 | 0.0 | 1.0 | 0.00 | 0.03 | 0.00 | 55 | 1011.0 |
| 20260902210956 | 95 | 305 | 0.0 | 2.0 | 0.00 | 0.03 | 0.00 | 55 | 1011.1 |
| 20260902210455 | 95 | 305 | 1.0 | 2.0 | 0.00 | 0.03 | 0.00 | 57 | 1011.1 |
| 20260902205955 | 95 | 309 | 0.0 | 1.0 | 0.00 | 0.03 | 0.00 | 56 | 1011.1 |
| 20260902205455 | 95 | 309 | 0.0 | 2.0 | 0.00 | 0.03 | 0.00 | 55 | 1011.1 |
| 20260902204955 | 95 | 311 | 1.0 | 2.0 | 0.00 | 0.03 | 0.00 | 56 | 1011.1 |
| 20260902204459 | 95 | 318 | 0.0 | 1.0 | 0.00 | 0.03 | 0.00 | 55 | 1011.2 |
| 20260902203955 | 95 | 318 | 1.0 | 2.0 | 0.00 | 0.03 | 0.00 | 55 | 1011.3 |
| 20260902203455 | 95 | 320 | 0.0 | 0.0 | 0.00 | 0.03 | 0.00 | 57 | 1011.4 |
| 20260902202955 | 95 | 320 | 0.0 | 2.0 | 0.00 | 0.03 | 0.00 | 57 | 1011.6 |
| 20260902202455 | 95 | 320 | 2.0 | 2.0 | 0.00 | 0.03 | 0.00 | 55 | 1011.6 |
| 20260902201956 | 95 | 323 | 0.0 | 2.0 | 0.00 | 0.03 | 0.00 | 55 | 1011.5 |
| 20260902201455 | 95 | 337 | 0.0 | 2.0 | 0.00 | 0.03 | 0.00 | 57 | 1011.6 |
| 20260902200955 | 95 | 337 | 0.0 | 2.0 | 0.00 | 0.03 | 0.00 | 55 | 1011.6 |
| 20260902200455 | 95 | 351 | 0.0 | 2.0 | 0.00 | 0.03 | 0.00 | 56 | 1011.6 |
| 20260902195955 | 95 | 0 | 0.0 | 3.0 | 0.00 | 0.03 | 0.00 | 55 | 1011.7 |
| 20260902195455 | 95 | 306 | 1.0 | 2.0 | 0.00 | 0.03 | 0.00 | 55 | 1011.9 |
| 20260902194955 | 94 | 312 | 1.0 | 2.0 | 0.00 | 0.03 | 0.00 | 56 | 1012.0 |
| 20260902194455 | 94 | 304 | 0.0 | 4.0 | 0.00 | 0.03 | 0.00 | 57 | 1012.1 |
| 20260902193955 | 94 | 293 | 0.0 | 4.0 | 0.00 | 0.03 | 0.00 | 55 | 1012.2 |
| 20260902193459 | 94 | 323 | 1.0 | 2.0 | 0.00 | 0.03 | 0.00 | 57 | 1012.3 |
| 20260902192958 | 94 | 348 | 1.0 | 1.0 | 0.00 | 0.03 | 0.00 | 58 | 1012.3 |
| 20260902192455 | 94 | 291 | 0.0 | 4.0 | 0.00 | 0.03 | 0.00 | 58 | 1012.3 |
| 20260902191955 | 94 | 294 | 0.0 | 3.0 | 0.00 | 0.03 | 0.00 | 56 | 1012.3 |
| 20260902191456 | 94 | 181 | 1.0 | 2.0 | 0.00 | 0.03 | 0.00 | 57 | 1012.4 |
| 20260902190955 | 94 | 248 | 0.0 | 1.0 | 0.00 | 0.03 | 0.00 | 61 | 1012.4 |
| 20260902190455 | 93 | 248 | 0.0 | 1.0 | 0.00 | 0.03 | 0.00 | 59 | 1012.6 |
| 20260902185955 | 93 | 248 | 0.0 | 2.0 | 0.00 | 0.03 | 0.00 | 60 | 1012.6 |
| 20260902185455 | 93 | 246 | 2.0 | 2.0 | 0.00 | 0.03 | 0.00 | 60 | 1012.7 |
| 20260902184955 | 92 | 235 | 1.0 | 3.0 | 0.00 | 0.03 | 0.00 | 59 | 1013.0 |
| 20260902184455 | 92 | 306 | 0.0 | 2.0 | 0.00 | 0.03 | 0.00 | 61 | 1012.9 |
| 20260902183955 | 92 | 313 | 0.0 | 3.0 | 0.00 | 0.03 | 0.00 | 61 | 1013.0 |
| 20260902183455 | 92 | 291 | 1.0 | 3.0 | 0.00 | 0.03 | 0.00 | 61 | 1013.2 |
| 20260902182956 | 92 | 263 | 1.0 | 2.0 | 0.00 | 0.03 | 0.00 | 62 | 1013.2 |
| 20260902182455 | 92 | 263 | 0.0 | 4.0 | 0.00 | 0.03 | 0.00 | 64 | 1013.3 |
| 20260902181955 | 92 | 267 | 1.0 | 3.0 | 0.00 | 0.03 | 0.00 | 63 | 1013.5 |
| 20260902181458 | 92 | 165 | 0.0 | 2.0 | 0.00 | 0.03 | 0.00 | 63 | 1013.4 |
| 20260902180955 | 92 | 323 | 1.0 | 3.0 | 0.00 | 0.03 | 0.00 | 63 | 1013.7 |
| 20260902180456 | 92 | 224 | 0.0 | 2.0 | 0.00 | 0.03 | 0.00 | 63 | 1013.6 |
| 20260902175955 | 92 | 225 | 1.0 | 4.0 | 0.00 | 0.03 | 0.00 | 63 | 1013.7 |
| 20260902175455 | 92 | 273 | 0.0 | 3.0 | 0.00 | 0.03 | 0.00 | 64 | 1013.9 |
| 20260902174955 | 92 | 225 | 1.0 | 2.0 | 0.00 | 0.03 | 0.00 | 65 | 1013.9 |
| 20260902174455 | 91 | 288 | 2.0 | 4.0 | 0.00 | 0.03 | 0.00 | 64 | 1014.0 |
| 20260902173955 | 91 | 285 | 1.0 | 3.0 | 0.00 | 0.03 | 0.00 | 65 | 1014.0 |
| 20260902173456 | 91 | 279 | 1.0 | 3.0 | 0.00 | 0.03 | 0.00 | 65 | 1014.2 |
| 20260902172955 | 92 | 270 | 2.0 | 3.0 | 0.00 | 0.03 | 0.00 | 66 | 1014.3 |
| 20260902172458 | 91 | 273 | 1.0 | 3.0 | 0.00 | 0.03 | 0.00 | 66 | 1014.3 |
| 20260902171955 | 91 | 307 | 1.0 | 2.0 | 0.00 | 0.03 | 0.00 | 68 | 1014.4 |
| 20260902171455 | 91 | 315 | 2.0 | 3.0 | 0.00 | 0.03 | 0.00 | 67 | 1014.5 |
| 20260902170958 | 90 | 205 | 1.0 | 3.0 | 0.00 | 0.03 | 0.00 | 67 | 1014.5 |
| 20260902170456 | 90 | 284 | 1.0 | 3.0 | 0.00 | 0.03 | 0.00 | 69 | 1014.6 |
| 20260902165955 | 89 | 273 | 1.0 | 4.0 | 0.00 | 0.03 | 0.00 | 70 | 1014.7 |
| 20260902165455 | 89 | 280 | 1.0 | 5.0 | 0.00 | 0.03 | 0.00 | 71 | 1014.8 |
| 20260902164958 | 89 | 273 | 3.0 | 7.0 | 0.00 | 0.03 | 0.00 | 71 | 1014.7 |
| 20260902164455 | 89 | 292 | 1.0 | 4.0 | 0.00 | 0.03 | 0.00 | 73 | 1014.6 |
| 20260902163958 | 88 | 321 | 1.0 | 3.0 | 0.00 | 0.03 | 0.00 | 75 | 1014.6 |
| 20260902163459 | 87 | 290 | 2.0 | 5.0 | 0.00 | 0.03 | 0.00 | 77 | 1014.7 |
| 20260902162958 | 87 | 296 | 2.0 | 4.0 | 0.00 | 0.03 | 0.00 | 78 | 1014.8 |
| 20260902162456 | 87 | 281 | 3.0 | 5.0 | 0.00 | 0.03 | 0.00 | 78 | 1015.0 |
| 20260902161958 | 86 | 273 | 2.0 | 3.0 | 0.00 | 0.03 | 0.00 | 79 | 1015.0 |
| 20260902161458 | 86 | 269 | 1.0 | 3.0 | 0.00 | 0.03 | 0.00 | 81 | 1015.1 |
| 20260902160956 | 85 | 298 | 1.0 | 3.0 | 0.00 | 0.03 | 0.00 | 82 | 1015.1 |
| 20260902160456 | 84 | 286 | 2.0 | 3.0 | 0.00 | 0.03 | 0.00 | 83 | 1015.1 |
| 20260902155955 | 84 | 292 | 2.0 | 4.0 | 0.00 | 0.03 | 0.00 | 83 | 1015.0 |
| 20260902155455 | 84 | 268 | 1.0 | 4.0 | 0.00 | 0.03 | 0.00 | 83 | 1015.0 |
| 20260902154955 | 84 | 269 | 1.0 | 5.0 | 0.00 | 0.03 | 0.00 | 83 | 1014.9 |
| 20260902154456 | 83 | 262 | 2.0 | 3.0 | 0.00 | 0.03 | 0.00 | 84 | 1015.0 |
| 20260902153956 | 83 | 316 | 3.0 | 4.0 | 0.00 | 0.03 | 0.00 | 85 | 1015.1 |
| 20260902153459 | 83 | 273 | 1.0 | 4.0 | 0.00 | 0.03 | 0.00 | 85 | 1015.0 |
| 20260902152955 | 83 | 336 | 1.0 | 3.0 | 0.00 | 0.03 | 0.00 | 85 | 1014.9 |
| 20260902152455 | 83 | 279 | 1.0 | 2.0 | 0.00 | 0.03 | 0.00 | 85 | 1014.8 |
| 20260902151955 | 83 | 286 | 1.0 | 3.0 | 0.00 | 0.03 | 0.00 | 85 | 1015.0 |
| 20260902151455 | 83 | 288 | 1.0 | 3.0 | 0.00 | 0.03 | 0.00 | 86 | 1015.0 |
| 20260902150956 | 83 | 280 | 0.0 | 2.0 | 0.00 | 0.03 | 0.00 | 86 | 1015.0 |
| 20260902150455 | 83 | 280 | 0.0 | 3.0 | 0.00 | 0.03 | 0.00 | 87 | 1014.9 |
| 20260902145958 | 82 | 289 | 0.0 | 2.0 | 0.00 | 0.03 | 0.00 | 87 | 1014.9 |
| 20260902145455 | 82 | 289 | 0.0 | 2.0 | 0.00 | 0.03 | 0.00 | 87 | 1015.0 |
| 20260902144955 | 82 | 289 | 1.0 | 2.0 | 0.00 | 0.03 | 0.00 | 87 | 1014.8 |
| 20260902144456 | 82 | 292 | 2.0 | 3.0 | 0.00 | 0.03 | 0.00 | 87 | 1014.9 |
| 20260902143955 | 82 | 293 | 1.0 | 6.0 | 0.00 | 0.03 | 0.00 | 88 | 1014.9 |
| 20260902143458 | 82 | 271 | 0.0 | 0.0 | 0.00 | 0.03 | 0.00 | 88 | 1014.8 |
| 20260902142955 | 82 | 271 | 0.0 | 2.0 | 0.00 | 0.03 | 0.00 | 88 | 1014.9 |
| 20260902142459 | 82 | 277 | 0.0 | 5.0 | 0.00 | 0.03 | 0.00 | 88 | 1014.9 |
| 20260902141955 | 82 | 273 | 2.0 | 4.0 | 0.00 | 0.03 | 0.00 | 88 | 1014.8 |
| 20260902141455 | 82 | 283 | 0.0 | 2.0 | 0.00 | 0.03 | 0.00 | 88 | 1014.8 |
| 20260902140958 | 81 | 284 | 0.0 | 3.0 | 0.00 | 0.03 | 0.00 | 88 | 1014.8 |
| 20260902140455 | 81 | 278 | 2.0 | 3.0 | 0.00 | 0.03 | 0.00 | 89 | 1014.8 |
| 20260902135955 | 81 | 295 | 0.0 | 3.0 | 0.00 | 0.03 | 0.00 | 89 | 1014.7 |
| 20260902135455 | 81 | 279 | 1.0 | 1.0 | 0.00 | 0.03 | 0.00 | 89 | 1014.7 |
| 20260902134956 | 81 | 279 | 1.0 | 2.0 | 0.00 | 0.03 | 0.00 | 89 | 1014.7 |
| 20260902134455 | 81 | 279 | 0.0 | 2.0 | 0.00 | 0.03 | 0.00 | 89 | 1014.7 |
| 20260902133955 | 81 | 290 | 1.0 | 2.0 | 0.00 | 0.03 | 0.00 | 89 | 1014.8 |
| 20260902133456 | 81 | 292 | 0.0 | 2.0 | 0.00 | 0.03 | 0.00 | 90 | 1014.8 |
| 20260902132958 | 81 | 290 | 0.0 | 2.0 | 0.00 | 0.03 | 0.00 | 90 | 1014.7 |
| 20260902132455 | 81 | 301 | 1.0 | 2.0 | 0.00 | 0.03 | 0.00 | 90 | 1014.6 |
| 20260902131955 | 81 | 305 | 0.0 | 2.0 | 0.00 | 0.03 | 0.00 | 90 | 1014.7 |
| 20260902131456 | 81 | 279 | 0.0 | 1.0 | 0.00 | 0.03 | 0.00 | 90 | 1014.5 |
| 20260902130955 | 81 | 279 | 0.0 | 1.0 | 0.00 | 0.03 | 0.00 | 90 | 1014.4 |
| 20260902130455 | 80 | 279 | 0.0 | 2.0 | 0.00 | 0.03 | 0.00 | 90 | 1014.3 |
| 20260902125955 | 80 | 277 | 0.0 | 4.0 | 0.00 | 0.03 | 0.00 | 90 | 1014.2 |
| 20260902125455 | 80 | 277 | 0.0 | 2.0 | 0.00 | 0.03 | 0.00 | 90 | 1014.1 |
| 20260902124955 | 80 | 275 | 0.0 | 1.0 | 0.00 | 0.03 | 0.00 | 90 | 1014.2 |
| 20260902124458 | 80 | 275 | 0.0 | 2.0 | 0.00 | 0.03 | 0.00 | 90 | 1014.1 |
| 20260902123956 | 80 | 275 | 0.0 | 1.0 | 0.00 | 0.03 | 0.00 | 90 | 1014.0 |
| 20260902123458 | 81 | 276 | 0.0 | 3.0 | 0.00 | 0.03 | 0.00 | 90 | 1013.9 |
| 20260902122955 | 81 | 297 | 0.0 | 2.0 | 0.00 | 0.03 | 0.00 | 90 | 1013.8 |
| 20260902122456 | 81 | 286 | 0.0 | 1.0 | 0.00 | 0.03 | 0.00 | 90 | 1013.6 |
| 20260902121955 | 81 | 286 | 0.0 | 1.0 | 0.00 | 0.03 | 0.00 | 90 | 1013.3 |
| 20260902121456 | 81 | 283 | 0.0 | 1.0 | 0.00 | 0.03 | 0.00 | 90 | 1013.1 |
| 20260902120955 | 81 | 270 | 0.0 | 3.0 | 0.00 | 0.03 | 0.00 | 90 | 1013.0 |
| 20260902120455 | 81 | 286 | 0.0 | 3.0 | 0.00 | 0.03 | 0.00 | 90 | 1013.0 |
| 20260902115958 | 81 | 268 | 3.0 | 3.0 | 0.00 | 0.03 | 0.00 | 90 | 1012.9 |
| 20260902115455 | 81 | 271 | 0.0 | 3.0 | 0.00 | 0.03 | 0.00 | 90 | 1013.0 |
| 20260902114955 | 81 | 269 | 0.0 | 3.0 | 0.00 | 0.03 | 0.00 | 89 | 1013.0 |
| 20260902114458 | 81 | 268 | 0.0 | 0.0 | 0.00 | 0.03 | 0.00 | 89 | 1012.9 |
| 20260902113956 | 81 | 268 | 0.0 | 5.0 | 0.00 | 0.03 | 0.00 | 89 | 1013.1 |
| 20260902113458 | 81 | 298 | 3.0 | 5.0 | 0.00 | 0.03 | 0.00 | 89 | 1013.0 |
| 20260902112955 | 81 | 278 | 0.0 | 1.0 | 0.00 | 0.03 | 0.00 | 89 | 1013.1 |
| 20260902112455 | 81 | 273 | 0.0 | 2.0 | 0.00 | 0.03 | 0.00 | 89 | 1013.1 |
| 20260902111955 | 81 | 273 | 1.0 | 3.0 | 0.00 | 0.03 | 0.00 | 89 | 1013.0 |
| 20260902111458 | 81 | 287 | 0.0 | 3.0 | 0.00 | 0.03 | 0.00 | 89 | 1012.9 |
| 20260902110955 | 81 | 273 | 0.0 | 3.0 | 0.00 | 0.03 | 0.00 | 89 | 1012.9 |
| 20260902110456 | 81 | 280 | 0.0 | 2.0 | 0.00 | 0.03 | 0.00 | 89 | 1012.9 |
| 20260902105955 | 81 | 288 | 0.0 | 0.0 | 0.00 | 0.03 | 0.00 | 88 | 1012.9 |
| 20260902105455 | 81 | 288 | 0.0 | 0.0 | 0.00 | 0.03 | 0.00 | 88 | 1012.9 |
| 20260902104955 | 81 | 288 | 0.0 | 2.0 | 0.00 | 0.03 | 0.00 | 88 | 1012.9 |
| 20260902104458 | 81 | 276 | 0.0 | 3.0 | 0.00 | 0.03 | 0.00 | 88 | 1013.0 |
| 20260902103955 | 81 | 292 | 1.0 | 2.0 | 0.00 | 0.03 | 0.00 | 87 | 1012.9 |
| 20260902103456 | 81 | 292 | 0.0 | 2.0 | 0.00 | 0.03 | 0.00 | 87 | 1012.9 |
| 20260902102955 | 81 | 288 | 2.0 | 3.0 | 0.00 | 0.03 | 0.00 | 87 | 1012.9 |
| 20260902102455 | 81 | 293 | 0.0 | 0.0 | 0.00 | 0.03 | 0.00 | 87 | 1013.0 |
| 20260902101958 | 81 | 293 | 0.0 | 0.0 | 0.00 | 0.03 | 0.00 | 87 | 1013.0 |
| 20260902101455 | 81 | 293 | 0.0 | 2.0 | 0.00 | 0.03 | 0.00 | 87 | 1013.1 |
| 20260902100955 | 81 | 293 | 0.0 | 2.0 | 0.00 | 0.03 | 0.00 | 87 | 1013.1 |
| 20260902100456 | 81 | 292 | 1.0 | 2.0 | 0.00 | 0.03 | 0.00 | 86 | 1013.1 |
| 20260902095955 | 81 | 292 | 2.0 | 2.0 | 0.00 | 0.03 | 0.00 | 86 | 1013.1 |
| 20260902095455 | 81 | 293 | 0.0 | 3.0 | 0.00 | 0.03 | 0.00 | 86 | 1013.1 |
| 20260902094955 | 81 | 288 | 0.0 | 3.0 | 0.00 | 0.03 | 0.00 | 86 | 1012.9 |
| 20260902094455 | 81 | 273 | 1.0 | 3.0 | 0.00 | 0.03 | 0.00 | 86 | 1012.8 |
| 20260902093955 | 81 | 266 | 1.0 | 3.0 | 0.00 | 0.03 | 0.00 | 86 | 1013.0 |
| 20260902093455 | 81 | 273 | 1.0 | 3.0 | 0.00 | 0.03 | 0.00 | 86 | 1013.0 |
| 20260902092959 | 81 | 275 | 2.0 | 3.0 | 0.00 | 0.03 | 0.00 | 86 | 1012.9 |
| 20260902092458 | 82 | 282 | 0.0 | 4.0 | 0.00 | 0.03 | 0.00 | 86 | 1012.9 |
| 20260902091955 | 82 | 282 | 0.0 | 2.0 | 0.00 | 0.03 | 0.00 | 85 | 1012.9 |
| 20260902091455 | 82 | 279 | 2.0 | 2.0 | 0.00 | 0.03 | 0.00 | 85 | 1012.9 |
| 20260902090959 | 81 | 279 | 1.0 | 3.0 | 0.00 | 0.03 | 0.00 | 85 | 1012.9 |
| 20260902090455 | 81 | 280 | 1.0 | 3.0 | 0.00 | 0.03 | 0.00 | 85 | 1013.0 |
| 20260902085956 | 81 | 296 | 0.0 | 3.0 | 0.00 | 0.03 | 0.00 | 84 | 1012.9 |
| 20260902085455 | 81 | 295 | 0.0 | 2.0 | 0.00 | 0.03 | 0.00 | 84 | 1013.0 |
| 20260902084955 | 81 | 295 | 1.0 | 2.0 | 0.00 | 0.03 | 0.00 | 83 | 1012.9 |
| 20260902084458 | 81 | 297 | 1.0 | 3.0 | 0.00 | 0.03 | 0.00 | 83 | 1012.8 |
| 20260902083958 | 81 | 285 | 1.0 | 4.0 | 0.00 | 0.03 | 0.00 | 83 | 1012.8 |
| 20260902083455 | 81 | 281 | 1.0 | 3.0 | 0.00 | 0.03 | 0.00 | 82 | 1012.8 |
| 20260902082956 | 81 | 267 | 1.0 | 3.0 | 0.00 | 0.03 | 0.00 | 82 | 1012.7 |